Flag for Austria Weather past 2 weeks in Bruck an der Leitha, Lower Austria, Austria

Now
71 °F

Passing clouds.


Feels Like: 76 °F
Forecast: 65 / 85 °F
Wind: 3 mph from South

Location: Wien / Schwechat-Flughafen

Current Time: Jul 1, 2015 at 12:07:59 AM

Latest Report: Jun 30, 2015 at 10:00 PM


Visibility: 22 mi

Pressure: 30.12 "Hg

Humidity: 60%

Dew point: 56 °F

Location of Bruck an der LeithaLocation

Historic Weather in Bruck an der Leitha — Graph

°F

Bruck an der Leitha temperature yesterday

Maximum temperature yesterday: 81 °F (at 4:00 PM)
Minimum temperature yesterday: 55 °F (at 3:00 AM)
Average temperature yesterday: 69 °F

Past Weeks' High & Low Weather Summary

 TemperatureHumidityPressure
High81 °F (Jun 30, 4:00 PM)97% (Jun 25, 3:00 AM)30.26 "Hg (Jun 25, 3:00 AM)
Low47 °F (Jun 25, 5:00 AM)32% (Jun 26, 4:00 PM)29.76 "Hg (Jun 23, 4:00 AM)
Average63 °F63%30.05 "Hg
* Reported Jun 15 10:00 PM — Jun 30 10:00 PM, Bruck an der Leitha, Weather by CustomWeather, © 2015

Note: Actual official high and low records may vary slightly from our data, if they occured in-between our weather recording intervals... More about our weather records

Advertising

Bruck an der Leitha weather history for previous 24 hours

 ConditionsComfort  
Time TempWeatherWind HumidityBarometerVisibility
10:00 PM
Tue, Jun 30
71 °FPassing clouds.3 mph60%30.12 "Hg22 mi
9:00 PM76 °FPassing clouds.N/A47%30.10 "Hg25 mi
8:00 PM76 °FOvercast.N/A43%30.10 "Hg28 mi
6:00 PM81 °FPartly sunny.N/A33%30.09 "Hg19 mi
4:00 PM81 °FPartly sunny.N/A35%30.10 "Hg16 mi
3:00 PM80 °FPartly sunny.N/A36%30.12 "Hg19 mi
2:00 PM79 °FPartly sunny.N/A40%30.14 "Hg16 mi
1:00 PM77 °FOvercast.N/A45%30.16 "Hg19 mi
12:00 PM75 °FOvercast.N/A46%30.16 "Hg17 mi
11:00 AM74 °FOvercast.N/A53%30.16 "Hg14 mi
10:00 AM71 °FOvercast.N/A61%30.18 "Hg13 mi
9:00 AM68 °FOvercast.N/A65%30.18 "Hg12 mi
8:00 AM66 °FOvercast.N/A70%30.18 "Hg9 mi
7:00 AM60 °FPartly sunny.N/A87%30.18 "Hg13 mi
6:00 AM55 °FPartly sunny.N/A89%30.18 "Hg8 mi
4:00 AM56 °FPassing clouds.N/A86%N/A7 mi
3:00 AM55 °FPassing clouds.N/A88%30.18 "Hg14 mi
2:00 AM59 °FPassing clouds.N/A80%30.18 "Hg19 mi
1:00 AM61 °FPassing clouds.N/A71%30.18 "Hg19 mi
12:00 AM63 °FPassing clouds.No wind71%30.18 "Hg25 mi
Weather by CustomWeather, © 2015

See weather overviewHow to use our weather pages